Wind_Speed
23 24 24 24 26 27 27 28 28 28 30 32 34 34 34 36 38 40 42 45 47 48 48 49 50 51 50 50 48 47 48 48 48 47 46 44 43 41 41 41 40 39 37 36
23 23 23 24 25 26 26 26 26 26 28 30 31 32 33 35 37 38 40 42 44 47 49 49 49 51 51 51 51 49 48 48 48 48 47 45 45 43 42 41 41 39 38 37
23 23 22 22 23 23 23 25 25 26 27 28 31 31 32 34 36 37 38 40 42 44 46 49 49 51 51 51 51 51 50 49 48 49 49 48 46 45 44 43 42 40 39 38
23 22 22 22 22 21 22 23 25 26 27 27 30 32 32 33 36 37 37 38 40 42 44 46 49 51 51 51 51 51 51 50 49 49 49 48 48 46 46 46 45 42 41 40
23 22 21 21 21 21 22 23 24 26 27 27 28 32 32 32 33 35 36 36 38 40 42 43 46 49 51 51 51 52 51 51 50 49 49 48 48 48 47 48 48 46 44 43
23 22 22 21 22 21 21 22 23 25 27 28 27 29 31 32 31 32 33 34 36 39 41 43 44 48 49 50 51 52 51 51 50 49 49 49 48 48 48 49 49 48 45 44
23 22 22 22 21 21 21 21 22 23 25 27 26 27 28 28 29 30 31 32 33 36 38 40 42 44 47 49 51 52 52 51 51 51 50 49 49 48 48 49 50 49 47 46
24 22 22 23 23 21 21 21 22 23 23 24 24 25 27 27 28 28 30 31 33 34 37 39 40 42 44 46 49 50 52 52 51 51 51 51 50 50 50 51 51 51 49 47
25 24 23 23 23 22 20 20 21 23 23 22 22 23 25 26 27 28 28 29 31 34 36 37 39 41 42 44 46 48 49 51 51 51 52 51 52 52 51 52 52 51 49 48
25 25 24 23 22 21 20 19 19 21 23 23 22 22 24 24 25 26 28 28 29 32 34 36 37 39 41 42 43 44 46 48 50 51 53 52 52 52 52 52 53 52 49 49
24 23 22 22 22 21 20 20 19 21 23 24 25 23 23 24 25 25 26 27 29 31 34 36 37 38 40 40 41 42 44 46 48 50 52 52 52 52 51 53 53 53 51 49
23 22 21 21 21 21 21 21 20 20 22 23 24 23 23 24 24 25 25 26 28 30 32 34 36 38 39 39 41 41 43 43 45 48 51 53 53 52 51 52 53 53 53 51
23 22 22 21 21 21 21 21 21 21 21 22 23 22 22 24 24 23 23 24 26 28 30 32 33 36 38 39 40 41 42 44 44 46 48 50 52 52 52 52 53 53 53 52
23 22 22 22 22 22 21 21 20 22 22 22 22 22 20 21 22 22 21 22 23 26 29 30 32 35 36 38 40 40 41 42 44 45 46 48 51 52 52 53 54 53 53 52
23 22 21 21 22 21 22 22 21 22 23 23 22 22 20 20 21 20 20 20 22 24 27 29 31 33 34 36 38 38 40 41 43 44 46 47 49 51 51 52 53 53 53 53
24 23 21 20 21 21 22 21 22 22 21 22 22 21 20 22 22 21 20 21 22 24 26 28 30 32 34 35 36 37 38 40 41 43 44 45 47 49 50 52 53 53 54 54
23 23 22 21 20 21 21 21 22 22 20 21 21 21 21 22 23 23 23 23 23 24 26 28 30 31 33 35 36 36 37 38 40 42 43 45 46 47 49 50 52 53 54 54
23 22 22 22 22 22 20 21 22 23 21 21 21 21 21 22 22 22 22 22 23 24 26 28 30 31 32 34 36 37 37 38 39 40 42 44 44 45 47 49 50 52 54 54
23 22 23 23 23 22 21 21 22 23 22 21 22 21 21 21 21 21 21 21 22 23 25 27 29 30 31 32 34 35 35 37 38 38 40 43 44 44 45 47 50 52 53 53
23 23 23 24 24 24 21 22 22 23 23 22 22 22 22 21 22 21 22 22 23 23 24 26 28 29 30 31 33 34 34 35 37 37 38 40 43 43 44 45 47 49 51 52
23 23 24 24 25 25 23 22 23 24 24 24 24 23 23 22 23 23 24 24 24 24 25 26 27 29 29 30 32 33 34 35 36 37 37 37 39 41 41 42 44 46 48 49
23 24 24 24 25 25 24 24 24 24 25 26 26 25 23 23 23 24 25 24 24 25 26 26 28 29 30 30 31 31 32 33 35 35 36 36 37 38 39 40 41 42 45 47
24 24 23 23 24 24 24 24 24 24 25 25 26 26 25 24 24 25 26 26 26 26 27 28 29 30 31 31 31 32 32 33 34 35 35 35 36 36 37 39 39 40 41 43
23 24 24 23 23 23 24 24 24 24 24 24 24 26 27 27 27 27 27 28 27 27 27 28 29 30 30 31 32 32 33 33 34 35 36 35 36 37 37 37 38 39 40 42
24 24 23 23 23 23 23 23 23 23 23 24 24 24 25 26 27 28 28 28 28 28 28 28 29 30 31 31 31 32 33 33 34 34 35 35 35 36 36 37 37 37 38 39
23 23 23 23 23 24 23 23 23 23 23 23 23 24 24 25 26 27 28 27 28 29 29 29 29 30 31 31 31 32 32 33 34 34 34 34 34 35 36 36 36 37 38 38
Wind_Direction
289 285 282 281 282 279 274 270 267 261 257 257 257 257 255 253 252 251 247 243 239 237 236 234 233 232 232 232 231 231 232 232 231 232 233 234 234 234 232 231 230 233 233 234
293 290 287 283 283 281 275 271 267 262 259 259 258 258 256 255 254 252 248 243 241 238 236 233 232 231 232 231 231 231 231 231 232 231 232 233 234 233 230 229 230 232 233 234
296 294 291 287 285 282 276 275 272 267 263 262 261 259 257 255 254 252 247 242 240 237 236 235 232 230 231 231 231 231 231 231 232 231 232 232 233 233 231 230 231 232 233 233
298 294 291 290 288 282 278 279 275 271 267 264 264 263 258 257 254 251 247 242 239 237 237 237 234 231 230 231 231 231 231 231 232 232 231 232 232 233 233 232 232 232 233 234
299 295 293 292 290 286 284 282 278 274 270 267 267 265 259 258 256 250 245 242 240 238 237 237 235 232 230 230 230 230 229 230 231 231 231 231 231 232 233 233 233 232 234 235
298 293 290 290 292 288 287 283 281 278 274 270 268 265 262 258 257 252 246 243 241 239 237 236 235 233 230 229 229 229 229 229 230 230 230 231 231 232 233 233 233 233 233 235
297 291 290 290 291 287 283 283 283 280 274 273 271 267 264 261 259 253 247 244 243 240 237 236 235 233 230 229 228 229 229 229 230 230 229 229 231 232 233 232 233 234 234 235
296 292 290 291 291 289 285 285 284 283 280 278 274 269 266 261 259 253 249 246 244 241 238 235 235 234 230 229 229 229 229 229 230 230 230 229 230 232 232 232 233 234 235 235
298 293 291 291 290 288 285 282 285 281 281 281 276 271 266 264 259 254 250 249 246 242 239 236 235 235 230 228 229 229 230 229 230 230 230 230 230 231 232 232 233 233 234 235
303 295 290 288 285 283 283 283 284 280 281 280 276 273 268 264 260 256 252 251 247 242 239 236 234 233 229 228 227 229 230 230 230 230 230 230 230 230 231 232 233 233 235 236
303 298 290 286 283 280 281 279 279 280 279 279 276 272 271 267 264 259 256 253 249 243 239 236 234 232 230 230 229 230 230 230 230 230 230 230 231 231 232 232 233 234 235 237
304 298 290 285 283 282 281 278 277 279 279 275 276 273 270 267 264 261 256 253 249 245 239 236 234 232 229 229 228 230 230 231 230 230 231 231 232 231 232 233 234 235 236 237
306 301 294 286 281 279 279 277 277 277 279 278 274 272 269 266 263 261 257 253 249 244 239 235 234 232 230 230 229 230 230 231 231 231 232 232 232 232 233 234 235 236 236 237
302 301 296 289 284 277 275 275 278 276 277 277 273 271 267 265 263 260 257 255 252 246 240 235 232 232 231 231 229 230 231 232 233 233 233 233 233 232 233 234 235 236 236 237
298 298 297 290 283 279 274 272 275 278 276 274 273 270 267 268 264 259 257 255 252 247 240 236 233 231 231 231 230 230 231 233 234 233 234 234 233 233 233 234 236 237 237 238
296 294 294 292 286 281 276 270 271 276 278 272 270 270 267 265 264 261 258 254 250 245 239 236 234 232 231 232 231 231 232 232 234 236 236 236 234 235 236 236 237 238 238 239
299 295 291 289 288 284 280 273 269 273 277 273 269 267 263 263 262 261 259 254 249 244 240 236 234 233 233 234 233 233 234 233 234 236 238 237 238 237 237 238 239 238 239 241
299 298 296 292 288 286 285 278 274 272 273 273 271 267 263 262 261 259 258 255 249 243 243 239 236 236 236 236 236 236 236 237 237 238 239 238 237 237 239 239 240 240 240 241
299 298 296 294 291 287 284 283 278 275 272 271 269 268 265 261 259 258 258 258 253 247 245 241 237 236 238 238 238 238 239 239 239 240 241 239 239 240 240 241 240 241 241 241
296 296 295 293 292 290 287 286 282 278 276 273 271 269 266 260 255 254 256 258 254 250 246 242 238 238 239 239 240 240 240 240 241 241 241 242 242 242 243 242 242 243 244 243
292 293 293 292 290 288 288 286 284 279 277 275 272 269 267 263 257 254 256 258 256 252 249 247 243 241 241 242 242 242 242 243 243 243 243 244 244 243 244 244 243 243 244 243
293 294 294 291 290 290 287 286 285 282 277 274 270 267 265 264 260 256 256 256 256 252 251 249 248 247 246 246 245 245 245 244 244 244 244 245 244 244 244 244 244 244 244 244
292 292 292 291 291 290 288 286 285 284 281 276 271 266 264 264 261 259 258 257 255 254 252 252 251 250 249 249 248 247 247 246 244 243 243 244 244 244 245 245 245 245 245 246
289 289 289 289 289 289 288 288 287 284 283 281 276 269 264 263 263 263 262 259 257 255 256 255 255 253 251 250 250 249 247 247 246 245 243 243 243 243 245 246 246 248 248 248
290 289 288 287 288 287 285 287 287 287 285 281 278 275 270 267 265 264 263 261 259 258 258 257 256 254 252 251 250 250 249 247 247 245 244 245 245 245 246 246 247 249 249 249
288 288 288 288 288 287 286 285 286 288 288 284 281 277 274 271 268 265 263 262 260 259 258 257 257 255 252 252 251 251 250 248 248 247 245 247 247 246 247 247 248 248 249 249
Height
5656 5655 5652 5652 5651 5650 5649 5649 5649 5650 5650 5650 5651 5653 5655 5656 5657 5659 5663 5667 5671 5676 5681 5686 5692 5698 5703 5710 5716 5721 5726 5732 5737 5743 5748 5753 5757 5761 5766 5770 5775 5779 5783 5786
5650 5647 5646 5644 5643 5641 5640 5641 5641 5642 5641 5641 5642 5643 5645 5645 5646 5648 5651 5654 5659 5663 5667 5673 5679 5685 5691 5697 5704 5710 5715 5720 5726 5732 5738 5743 5748 5752 5756 5761 5766 5770 5774 5778
5643 5642 5639 5638 5636 5634 5634 5634 5634 5634 5634 5633 5633 5634 5635 5635 5635 5637 5639 5643 5647 5651 5655 5661 5666 5673 5679 5685 5692 5698 5704 5710 5714 5720 5727 5732 5737 5741 5746 5752 5757 5761 5766 5770
5637 5635 5633 5631 5629 5628 5628 5627 5626 5625 5625 5624 5624 5622 5625 5625 5625 5626 5629 5632 5636 5640 5644 5649 5654 5660 5667 5674 5680 5686 5693 5698 5704 5709 5716 5721 5727 5732 5737 5742 5747 5752 5756 5761
5631 5629 5627 5625 5624 5622 5621 5620 5619 5618 5617 5616 5615 5613 5615 5615 5614 5616 5619 5622 5626 5629 5634 5638 5642 5648 5655 5662 5668 5674 5680 5687 5693 5698 5705 5711 5716 5722 5727 5732 5737 5742 5747 5752
5626 5623 5621 5619 5617 5616 5614 5614 5612 5610 5609 5608 5607 5605 5605 5605 5606 5608 5611 5614 5617 5620 5624 5628 5632 5637 5643 5649 5656 5663 5669 5675 5682 5688 5694 5700 5706 5712 5717 5722 5727 5733 5738 5743
5621 5617 5614 5613 5611 5610 5608 5607 5604 5602 5600 5599 5599 5597 5597 5597 5599 5600 5602 5606 5608 5611 5614 5618 5622 5626 5632 5638 5645 5651 5658 5665 5671 5677 5683 5690 5696 5701 5707 5712 5717 5722 5728 5733
5614 5612 5609 5605 5604 5602 5600 5599 5597 5594 5592 5593 5592 5590 5591 5590 5591 5592 5594 5596 5599 5601 5605 5609 5612 5616 5622 5627 5634 5640 5647 5654 5660 5666 5673 5679 5685 5691 5696 5702 5707 5712 5718 5723
5607 5605 5603 5599 5597 5595 5593 5592 5591 5589 5586 5585 5584 5584 5584 5583 5583 5585 5586 5587 5590 5592 5596 5599 5603 5607 5613 5618 5624 5630 5636 5643 5649 5655 5662 5668 5674 5680 5686 5691 5696 5702 5707 5713
5599 5598 5596 5594 5591 5589 5588 5586 5585 5582 5580 5578 5578 5577 5577 5576 5577 5578 5579 5580 5582 5584 5587 5591 5595 5599 5604 5609 5615 5621 5627 5632 5638 5644 5650 5657 5663 5669 5675 5680 5686 5691 5697 5702
5593 5591 5589 5587 5585 5583 5582 5581 5578 5576 5574 5572 5570 5573 5571 5570 5570 5571 5572 5572 5574 5576 5579 5582 5586 5590 5596 5601 5606 5611 5617 5622 5627 5633 5639 5646 5652 5657 5663 5670 5675 5680 5686 5691
5587 5584 5582 5581 5579 5577 5575 5574 5572 5571 5569 5566 5565 5568 5565 5564 5563 5564 5565 5565 5566 5568 5571 5574 5578 5582 5587 5592 5598 5603 5608 5613 5618 5623 5629 5635 5641 5647 5653 5659 5664 5669 5674 5679
5581 5578 5576 5575 5575 5572 5569 5568 5566 5565 5563 5560 5559 5563 5560 5559 5558 5558 5559 5559 5560 5562 5564 5567 5571 5575 5579 5584 5589 5593 5598 5603 5608 5613 5619 5624 5630 5636 5641 5647 5653 5658 5662 5667
5574 5572 5571 5569 5566 5564 5563 5562 5560 5558 5556 5555 5554 5555 5555 5554 5553 5552 5553 5553 5554 5555 5557 5560 5564 5568 5572 5576 5580 5584 5589 5594 5599 5604 5609 5613 5618 5624 5630 5635 5640 5645 5650 5655
5568 5566 5564 5562 5559 5557 5556 5555 5554 5552 5551 5550 5550 5549 5550 5548 5547 5547 5547 5548 5549 5550 5552 5554 5557 5561 5565 5569 5572 5576 5581 5585 5589 5594 5599 5603 5608 5613 5618 5624 5628 5633 5638 5643
5562 5560 5558 5556 5554 5551 5550 5549 5547 5546 5545 5543 5543 5544 5544 5542 5542 5542 5542 5542 5543 5544 5546 5548 5551 5555 5558 5561 5565 5569 5573 5577 5580 5585 5589 5593 5597 5602 5607 5612 5616 5621 5626 5630
5556 5553 5552 5550 5548 5545 5544 5544 5542 5540 5539 5538 5537 5539 5537 5536 5536 5536 5536 5536 5537 5539 5540 5542 5545 5548 5551 5554 5558 5561 5565 5568 5572 5576 5580 5583 5587 5592 5596 5601 5605 5609 5614 5618
5550 5547 5545 5543 5542 5539 5541 5537 5535 5534 5533 5532 5531 5531 5531 5530 5530 5529 5530 5530 5531 5533 5534 5536 5539 5541 5544 5547 5550 5553 5557 5560 5563 5566 5570 5573 5577 5581 5585 5589 5593 5597 5602 5606
5544 5541 5538 5536 5534 5533 5534 5531 5528 5527 5527 5526 5525 5525 5524 5523 5524 5524 5524 5524 5525 5527 5528 5530 5532 5535 5537 5539 5542 5545 5548 5551 5554 5557 5560 5564 5567 5570 5574 5578 5582 5585 5590 5594
5537 5534 5533 5529 5527 5526 5528 5525 5522 5521 5521 5520 5518 5518 5517 5517 5518 5519 5518 5518 5519 5520 5522 5523 5525 5527 5530 5532 5534 5537 5539 5542 5545 5548 5551 5554 5557 5560 5563 5567 5570 5574 5578 5582
5531 5528 5526 5523 5520 5520 5520 5517 5515 5516 5515 5513 5511 5510 5510 5510 5511 5511 5511 5512 5512 5513 5515 5516 5518 5520 5522 5524 5526 5529 5531 5533 5536 5538 5541 5544 5547 5550 5553 5556 5560 5563 5567 5571
5523 5521 5519 5516 5514 5515 5512 5510 5509 5508 5506 5504 5503 5503 5502 5502 5503 5503 5503 5504 5505 5506 5507 5509 5511 5512 5514 5516 5518 5521 5523 5525 5527 5529 5532 5535 5538 5540 5543 5546 5549 5552 5555 5559
5516 5515 5512 5510 5510 5507 5504 5502 5501 5499 5498 5496 5495 5495 5495 5495 5495 5495 5496 5497 5497 5499 5500 5501 5503 5504 5506 5508 5510 5512 5514 5516 5518 5521 5523 5526 5528 5531 5533 5536 5538 5541 5544 5547
5509 5506 5504 5503 5501 5499 5496 5495 5493 5492 5490 5488 5487 5487 5487 5487 5487 5487 5488 5488 5489 5490 5492 5493 5494 5496 5498 5499 5501 5503 5505 5507 5509 5511 5514 5516 5518 5521 5524 5526 5528 5531 5533 5536
5501 5498 5496 5495 5494 5491 5489 5487 5486 5484 5482 5481 5479 5478 5478 5478 5479 5479 5479 5480 5481 5482 5483 5484 5486 5487 5489 5491 5492 5494 5496 5498 5500 5502 5504 5507 5509 5511 5513 5516 5518 5521 5523 5525
5493 5491 5489 5488 5486 5483 5482 5480 5478 5476 5475 5473 5472 5471 5470 5470 5470 5470 5471 5471 5472 5473 5474 5475 5477 5478 5480 5481 5483 5485 5487 5488 5491 5493 5495 5497 5499 5501 5503 5506 5508 5510 5513 5514